Airport Information

KDLS - Columbia Gorge Regional - The Dalles Municipal Airport

KDLS 251153Z AUTO 00000KT 10SM CLR 03/01 A3011 RMK AO2 SLP196 T00330006 10072 20028 58009


  • General Information

  • Coordinates: N 45°37'6"/ W 121°10'2"
  • Location: N/A
  • Surveyed Elevation: 247 MSL

Operations

Flow Name Active Runways Conditions

Green background denotes normal operations.


Common Frequencies

Callsign Frequency Position Name

More at the Document Center


Charts